Moffett NAS, CA

1:51 PM PST on February 21, 2018 (GMT -0800)
Moffett Federal Air Field

Weather History for KNUQ - August, 2013

Change the Weather History Date:

Sunday, August 18, 2013

  Actual Average Record
Temperature  
Mean Temperature 72 °F 68 °F  
Max Temperature 85 °F 77 °F 90 °F (1978)
Min Temperature 59 °F 59 °F 51 °F (1949)
Degree Days  
Heating Degree Days 0    
Month to date heating degree days 3  
Since 1 June heating degree days 17  
Since 1 July heating degree days 4  
Cooling Degree Days 7    
Month to date cooling degree days 36  
Year to date cooling degree days 301  
Since 1 June cooling degree days 227  
Growing Degree Days 22 (Base 50)    
Moisture  
Dew Point 59 °F    
Average Humidity 62    
Maximum Humidity 84    
Minimum Humidity 40    
Precipitation  
Precipitation 0.00 in 0.00 in 0.52 in (1975)
Month to date precipitation 0.00 0.00  
Year to date precipitation 1.82 9.65  
Since 1 July precipitation T  
Sea Level Pressure  
Sea Level Pressure 29.87 in    
Wind  
Wind Speed 4 mph (NNW)    
Max Wind Speed 14 mph    
Max Gust Speed 17 mph    
Visibility 10 miles    
Events      
T = Trace of Precipitation, MM = Missing Value Source: NWS Daily Summary

Daily Weather History Graph

Daily Weather History Graph

Search for Another Location

Airport or City:

Trip Planner

Search our weather history database for the weather conditions in past years. The results will help you decide how hot, cold, wet, or windy it might be!

Date:

Astronomy

Aug. 18, 2013 Rise Set
Actual Time 6:27 AM PDT 7:56 PM PDT
Civil Twilight 5:59 AM PDT 8:23 PM PDT
Nautical Twilight 5:26 AM PDT 8:56 PM PDT
Astronomical Twilight 4:51 AM PDT 9:31 PM PDT
Moon 6:05 PM PDT (8/18) 3:44 AM PDT (8/18)
Length of Visible Light 14h 23m
Length of Day
13h 28m
Waxing Gibbous, 93% of the Moon is Illuminated
Aug 18
Waxing Gibbous
Aug 20
Full
Aug 28
Last Quarter
Sep 5
New
Sep 12
First Quarter

Hourly Weather History & Observations

Time (PDT) Temp. Heat Index Dew Point Humidity Pressure Visibility Wind Dir Wind Speed Gust Speed Precip Events Conditions
12:56 AM 62.1 °F - 57.9 °F 86% 29.91 in 10.0 mi East 3.5 mph - N/A   Mostly Cloudy
1:14 AM 62.6 °F - 59.0 °F 88% 29.90 in 10.0 mi Calm Calm - N/A   Partly Cloudy
1:56 AM 62.1 °F - 57.9 °F 86% 29.90 in 10.0 mi Calm Calm - N/A   Clear
2:56 AM 62.1 °F - 57.9 °F 86% 29.89 in 10.0 mi Calm Calm - N/A   Partly Cloudy
3:56 AM 61.0 °F - 57.0 °F 87% 29.88 in 10.0 mi Calm Calm - N/A   Clear
4:56 AM 61.0 °F - 57.0 °F 87% 29.89 in 10.0 mi Calm Calm - N/A   Clear
5:42 AM 60.8 °F - 57.2 °F 88% 29.88 in 10.0 mi Calm Calm - N/A   Mostly Cloudy
5:56 AM 61.0 °F - 57.0 °F 87% 29.89 in 10.0 mi Calm Calm - N/A   Overcast
6:18 AM 60.8 °F - 57.2 °F 88% 29.88 in 10.0 mi Calm Calm - N/A   Scattered Clouds
6:56 AM 60.1 °F - 57.0 °F 90% 29.90 in 10.0 mi Calm Calm - N/A   Clear
7:08 AM 60.8 °F - 57.2 °F 88% 29.89 in 10.0 mi Calm Calm - N/A   Scattered Clouds
7:17 AM 60.8 °F - 57.2 °F 88% 29.89 in 10.0 mi Calm Calm - N/A   Mostly Cloudy
7:56 AM 63.0 °F - 60.1 °F 90% 29.90 in 10.0 mi Calm Calm - N/A   Overcast
8:56 AM 64.0 °F - 59.0 °F 84% 29.91 in 10.0 mi Calm Calm - N/A   Mostly Cloudy
9:05 AM 64.4 °F - 59.0 °F 83% 29.90 in 10.0 mi Calm Calm - N/A   Mostly Cloudy
9:56 AM 69.1 °F - 59.0 °F 70% 29.90 in 10.0 mi Calm Calm - N/A   Clear
10:56 AM 73.0 °F - 60.1 °F 64% 29.90 in 10.0 mi North 5.8 mph - N/A   Clear
11:56 AM 75.9 °F - 59.0 °F 56% 29.88 in 10.0 mi Variable 4.6 mph - N/A   Clear
12:56 PM 81.0 °F 81.6 °F 60.1 °F 49% 29.87 in 10.0 mi NNW 6.9 mph - N/A   Clear
1:56 PM 82.9 °F 83.2 °F 60.1 °F 46% 29.85 in 10.0 mi North 9.2 mph - N/A   Clear
2:56 PM 84.0 °F 83.5 °F 57.9 °F 41% 29.83 in 10.0 mi NNW 10.4 mph - N/A   Clear
3:56 PM 82.9 °F 83.2 °F 60.1 °F 46% 29.81 in 10.0 mi NNW 11.5 mph - N/A   Clear
4:56 PM 82.0 °F 83.0 °F 62.1 °F 51% 29.80 in 10.0 mi NNW 8.1 mph - N/A   Clear
5:56 PM 81.0 °F 81.0 °F 57.0 °F 44% 29.80 in 10.0 mi NW 11.5 mph - N/A   Partly Cloudy
6:56 PM 77.0 °F - 61.0 °F 58% 29.79 in 10.0 mi NNW 10.4 mph - N/A   Clear
7:56 PM 75.0 °F - 61.0 °F 62% 29.81 in 10.0 mi NW 6.9 mph - N/A   Clear
8:56 PM 73.9 °F - 57.9 °F 57% 29.82 in 10.0 mi Calm Calm - N/A   Clear
9:56 PM 73.0 °F - 57.9 °F 59% 29.83 in 10.0 mi Calm Calm - N/A   Clear
10:56 PM 73.0 °F - 59.0 °F 61% 29.83 in 10.0 mi ENE 3.5 mph - N/A   Clear
11:56 PM 73.9 °F - 59.0 °F 59% 29.83 in 10.0 mi Calm Calm - N/A   Clear